STARLINK-34424

Last updated on Thu Jul 03 2025 00:02:06 GMT+0000 (Coordinated Universal Time)

1 64295U 25123E 25183.58335648 .00050553 00000+0 89024-3 0 9993 2 64295 69.9994 120.1194 0003793 268.0252 293.6560 15.50177856 5077
UTC large
Height (km)
Speed (km/s)
/
Latitude / Longitude
Inclination (degrees)
Orbital Period (minutes)
Azimuth
Elevation
Range (km)
Doppler Factor

Next 0 passes for location: London (51.5072 / 0.1276)

Sorry there are no passes over London.